Regional Weather Roundup
Issued by NWS

Home | Current Version | Previous Version | Graphics & Text | Print | Product List | Glossary On
Versions: 1 2 3 4 5 6 7 8 9 10 11 12 13 14 15 16 17 18 19 20 21 22 23 24 25 26 27 28 29 30 31 32 33 34 35 36 37 38 39 40 41 42 43 44 45 46 47 48 49 50
000
ASUS43 KFSD 261810
RWRSD

WEATHER ROUNDUP FOR SOUTH DAKOTA
NATIONAL WEATHER SERVICE SIOUX FALLS SD
100 PM CDT FRI MAY 26 2017

NOTE: "FAIR" INDICATES FEW OR NO CLOUDS BELOW 12,000 FEET WITH NO
SIGNIFICANT WEATHER AND/OR OBSTRUCTIONS TO VISIBILITY.


SDZ001>005-009-010-012>017-261900-
NORTHWEST AND NORTH CENTRAL SOUTH DAKOTA

CITY           SKY/WX    TMP DP  RH WIND       PRES   REMARKS
BUFFALO          N/A     62  38  40 NW23G31   29.82S
FAITH            N/A     65  37  35 W23G32    29.87R
MOBRIDGE       PTSUNNY   64  40  41 NW17G25   29.80S
$$

SDZ012>016-024>037-041>051-057-063-072>074-261900-
SOUTHWEST AND SOUTH CENTRAL SOUTH DAKOTA

CITY           SKY/WX    TMP DP  RH WIND       PRES   REMARKS
RAPID CTY ARPT SUNNY     66  35  31 VRB6G17   29.90S
PIERRE         SUNNY     67  38  34 NW25G31   29.84S
CUSTER         CLOUDY    58  27  30 VRB3      29.94S
ELLSWORTH AFB  SUNNY     65  35  33 N10G18    29.89
PHILIP         MOSUNNY   69  36  29 NW21G29   29.88S
PINE RIDGE     SUNNY     66  38  35 N3        29.93S
SPEARFISH      FAIR      59  39  47 NW12G18   29.93S
WINNER         FAIR      68  42  38 NW14G21   29.89S
$$

SDZ004>011-016>023-039-040-261900-
NORTHEAST SOUTH DAKOTA

CITY           SKY/WX    TMP DP  RH WIND       PRES   REMARKS
ABERDEEN       MOSUNNY   66  39  37 NW14G23   29.78S
WATERTOWN      MOSUNNY   66  43  43 W14G23    29.79R
BROOKINGS      SUNNY     66  47  50 W20G25    29.81R
SISSETON         N/A     69  45  41 W20G25    29.74R
$$

SDZ017-020-022-023-036>040-048>070-261900-
SOUTHEAST SOUTH DAKOTA

CITY           SKY/WX    TMP DP  RH WIND       PRES   REMARKS
SIOUX FALLS    MOSUNNY   71  51  49 NW14G21   29.81R
HURON          SUNNY     68  42  38 W14       29.81S
CHAMBERLAIN    SUNNY     69  41  36 W16       29.87S
MITCHELL       SUNNY     71  42  35 NW15G26   29.83S
YANKTON          N/A     69  47  45 NW16      29.84
$$

ABBREVIATIONS USED IN REMARKS
   TC - TEMPERATURE IN CELSIUS
  WCI - WIND CHILL INDEX
   HX - HEAT INDEX
  VSB - VISIBILITY





USA.gov is the U.S. government's official web portal to all federal, state and local government web resources and services.